| time (UTC) | temp F | wind direction | speed knots | gust knots | rain 1hr in | rain 24hr in | rain mn in | humidity % | barometer mb |
| 20260503232017 | 64 | 0.0 | 0.0 | 0.00 | 0.00 | 0.00 | 38 | 1015.7 | |
| 20260503231017 | 63 | 0.0 | 2.6 | 0.00 | 0.00 | 0.00 | 36 | 1015.5 | |
| 20260503230035 | 63 | 270 | 0.9 | 3.5 | 0.00 | 0.00 | 0.00 | 35 | 1015.6 |
| 20260503225017 | 64 | 293 | 0.9 | 3.5 | 0.00 | 0.00 | 0.00 | 35 | 1015.7 |
| 20260503224017 | 65 | 270 | 0.9 | 3.5 | 0.00 | 0.00 | 0.00 | 34 | 1015.8 |
| 20260503223017 | 64 | 0.0 | 0.0 | 0.00 | 0.00 | 0.00 | 38 | 1015.7 | |
| 20260503222017 | 65 | 270 | 0.9 | 5.2 | 0.00 | 0.00 | 0.00 | 34 | 1015.9 |
| 20260503221017 | 65 | 270 | 0.9 | 3.5 | 0.00 | 0.00 | 0.00 | 35 | 1016.1 |
| 20260503220037 | 66 | 293 | 0.9 | 2.6 | 0.00 | 0.00 | 0.00 | 33 | 1016.1 |
| 20260503215017 | 67 | 270 | 1.7 | 6.1 | 0.00 | 0.00 | 0.00 | 32 | 1016.3 |
| 20260503214017 | 67 | 0.0 | 1.7 | 0.00 | 0.00 | 0.00 | 32 | 1016.1 | |
| 20260503213017 | 66 | 270 | 1.7 | 7.8 | 0.00 | 0.00 | 0.00 | 32 | 1016.2 |
| 20260503212017 | 66 | 270 | 2.6 | 5.2 | 0.00 | 0.00 | 0.00 | 32 | 1016.1 |
| 20260503211017 | 67 | 270 | 0.9 | 6.1 | 0.00 | 0.00 | 0.00 | 34 | 1016.1 |
| 20260503210017 | 66 | 270 | 0.9 | 5.2 | 0.00 | 0.00 | 0.00 | 33 | 1016.2 |
| 20260503205057 | 66 | 45 | 1.7 | 5.2 | 0.00 | 0.00 | 0.00 | 34 | 1016.2 |
| 20260503204037 | 66 | 270 | 1.7 | 7.8 | 0.00 | 0.00 | 0.00 | 33 | 1016.2 |
| 20260503203017 | 66 | 270 | 1.7 | 7.8 | 0.00 | 0.00 | 0.00 | 34 | 1016.3 |
| 20260503202057 | 66 | 270 | 1.7 | 7.0 | 0.00 | 0.00 | 0.00 | 33 | 1016.5 |
| 20260503201017 | 66 | 293 | 1.7 | 5.2 | 0.00 | 0.00 | 0.00 | 35 | 1016.5 |
| 20260503200017 | 66 | 293 | 0.9 | 3.5 | 0.00 | 0.00 | 0.00 | 35 | 1016.6 |
| 20260503195017 | 67 | 293 | 0.9 | 2.6 | 0.00 | 0.00 | 0.00 | 33 | 1016.8 |
| 20260503194017 | 65 | 270 | 0.9 | 2.6 | 0.00 | 0.00 | 0.00 | 34 | 1017.0 |
| 20260503193017 | 65 | 293 | 1.7 | 8.7 | 0.00 | 0.00 | 0.00 | 33 | 1017.1 |
| 20260503192017 | 65 | 270 | 2.6 | 6.1 | 0.00 | 0.00 | 0.00 | 34 | 1017.2 |
| 20260503191016 | 64 | 293 | 2.6 | 7.0 | 0.00 | 0.00 | 0.00 | 35 | 1017.4 |
| 20260503190017 | 65 | 293 | 1.7 | 4.3 | 0.00 | 0.00 | 0.00 | 33 | 1017.7 |
| 20260503185017 | 64 | 270 | 1.7 | 6.1 | 0.00 | 0.00 | 0.00 | 33 | 1017.8 |
| 20260503184057 | 64 | 293 | 1.7 | 6.1 | 0.00 | 0.00 | 0.00 | 35 | 1017.9 |
| 20260503183017 | 64 | 45 | 0.9 | 2.6 | 0.00 | 0.00 | 0.00 | 35 | 1017.9 |
| 20260503182017 | 64 | 270 | 1.7 | 6.1 | 0.00 | 0.00 | 0.00 | 36 | 1018.0 |
| 20260503181017 | 63 | 270 | 2.6 | 7.8 | 0.00 | 0.00 | 0.00 | 37 | 1018.1 |
| 20260503180017 | 63 | 270 | 1.7 | 5.2 | 0.00 | 0.00 | 0.00 | 36 | 1018.1 |
| 20260503175036 | 62 | 248 | 2.6 | 6.1 | 0.00 | 0.00 | 0.00 | 38 | 1018.2 |
| 20260503174017 | 62 | 45 | 1.7 | 5.2 | 0.00 | 0.00 | 0.00 | 38 | 1018.1 |
| 20260503173017 | 62 | 270 | 2.6 | 9.6 | 0.00 | 0.00 | 0.00 | 36 | 1018.4 |
| 20260503172016 | 62 | 270 | 1.7 | 4.3 | 0.00 | 0.00 | 0.00 | 36 | 1018.4 |
| 20260503171036 | 61 | 68 | 1.7 | 6.1 | 0.00 | 0.00 | 0.00 | 40 | 1018.6 |
| 20260503131017 | 51 | 0.0 | 1.7 | 0.00 | 0.00 | 0.00 | 63 | 1019.2 | |
| 20260503081036 | 47 | 0.0 | 0.0 | 0.00 | 0.00 | 0.00 | 72 | 1015.9 | |
| 20260503072016 | 48 | 0.0 | 0.0 | 0.00 | 0.00 | 0.00 | 70 | 1015.4 | |
| 20260503071056 | 48 | 0.0 | 0.0 | 0.00 | 0.00 | 0.00 | 69 | 1015.3 | |
| 20260503055015 | 48 | 0.0 | 0.0 | 0.00 | 0.00 | 0.00 | 75 | 1014.6 | |
| 20260503054016 | 48 | 0.0 | 0.0 | 0.00 | 0.00 | 0.00 | 77 | 1014.6 | |
| 20260503053016 | 48 | 0.0 | 0.0 | 0.00 | 0.00 | 0.00 | 78 | 1014.6 | |
| 20260503052016 | 48 | 0.0 | 0.0 | 0.00 | 0.00 | 0.00 | 78 | 1014.6 | |
| 20260503051016 | 48 | 0.0 | 0.0 | 0.00 | 0.00 | 0.00 | 79 | 1014.5 | |
| 20260503050016 | 48 | 0.0 | 0.0 | 0.00 | 0.00 | 0.00 | 78 | 1014.5 | |
| 20260503045035 | 48 | 0.0 | 0.0 | 0.00 | 0.00 | 0.00 | 83 | 1014.5 | |
| 20260503044016 | 48 | 0.0 | 0.0 | 0.00 | 0.00 | 0.00 | 84 | 1014.4 | |
| 20260503043016 | 48 | 0.0 | 0.0 | 0.00 | 0.00 | 0.00 | 84 | 1014.3 | |
| 20260503042036 | 48 | 0.0 | 0.0 | 0.00 | 0.00 | 0.00 | 84 | 1014.3 | |
| 20260503041016 | 49 | 0.0 | 0.0 | 0.00 | 0.00 | 0.00 | 84 | 1014.3 | |
| 20260503040036 | 49 | 0.0 | 0.0 | 0.00 | 0.00 | 0.00 | 83 | 1014.3 | |
| 20260503035015 | 49 | 0.0 | 0.0 | 0.00 | 0.00 | 0.00 | 82 | 1014.2 | |
| 20260503034015 | 49 | 0.0 | 0.0 | 0.00 | 0.00 | 0.00 | 83 | 1014.3 | |
| 20260503033015 | 49 | 0.0 | 0.0 | 0.00 | 0.00 | 0.00 | 82 | 1014.2 | |
| 20260503032015 | 49 | 0.0 | 0.0 | 0.00 | 0.00 | 0.00 | 82 | 1014.1 | |
| 20260503031015 | 49 | 0.0 | 0.0 | 0.00 | 0.00 | 0.00 | 82 | 1014.1 | |
| 20260503030035 | 49 | 0.0 | 0.0 | 0.00 | 0.00 | 0.00 | 82 | 1014.1 | |
| 20260503025015 | 50 | 0.0 | 0.0 | 0.00 | 0.00 | 0.00 | 82 | 1014.0 | |
| 20260503024035 | 50 | 0.0 | 0.0 | 0.00 | 0.00 | 0.00 | 82 | 1014.2 | |
| 20260503023035 | 50 | 0.0 | 0.0 | 0.00 | 0.00 | 0.00 | 83 | 1014.1 | |
| 20260503022015 | 50 | 0.0 | 0.0 | 0.00 | 0.00 | 0.00 | 82 | 1014.1 | |
| 20260503021015 | 50 | 0.0 | 0.0 | 0.00 | 0.00 | 0.00 | 83 | 1014.0 | |
| 20260503020015 | 50 | 0.0 | 0.0 | 0.00 | 0.00 | 0.00 | 82 | 1014.0 | |
| 20260503015015 | 50 | 0.0 | 0.0 | 0.00 | 0.00 | 0.00 | 82 | 1013.9 | |
| 20260503014015 | 51 | 0.0 | 0.0 | 0.00 | 0.00 | 0.00 | 82 | 1013.9 | |
| 20260503013015 | 51 | 0.0 | 0.0 | 0.00 | 0.00 | 0.00 | 80 | 1014.0 | |
| 20260503012015 | 51 | 0.0 | 0.0 | 0.00 | 0.00 | 0.00 | 80 | 1013.8 | |
| 20260503011015 | 51 | 0.0 | 0.0 | 0.00 | 0.00 | 0.00 | 78 | 1013.7 | |
| 20260503010015 | 51 | 0.0 | 0.0 | 0.00 | 0.00 | 0.00 | 78 | 1013.6 | |
| 20260503005015 | 51 | 0.0 | 0.0 | 0.00 | 0.00 | 0.00 | 78 | 1013.6 | |
| 20260503004015 | 52 | 0.0 | 0.0 | 0.00 | 0.00 | 0.00 | 78 | 1013.4 | |
| 20260503003015 | 52 | 0.0 | 0.0 | 0.00 | 0.00 | 0.00 | 78 | 1013.3 | |
| 20260503002055 | 52 | 0.0 | 0.0 | 0.00 | 0.00 | 0.00 | 79 | 1013.2 | |
| 20260503001015 | 53 | 0.0 | 0.0 | 0.00 | 0.00 | 0.00 | 77 | 1013.1 | |
| 20260503000015 | 53 | 0.0 | 0.0 | 0.00 | 0.00 | 0.00 | 72 | 1012.9 | |
| 20260502235015 | 54 | 0.0 | 0.0 | 0.00 | 0.00 | 0.00 | 69 | 1012.7 | |
| 20260502234015 | 55 | 0.0 | 0.0 | 0.00 | 0.00 | 0.00 | 68 | 1012.6 | |
| 20260502233016 | 56 | 0.0 | 0.0 | 0.00 | 0.00 | 0.00 | 67 | 1012.5 |